Location: Aldenham
(51.6667°N, 0.3500°W)
Time: 05:09:08
(UTC+00:00)

A-11 Canister half - Pass Details

Date: 24 February 2026
Orbit: 1512 x 1687 km, 47.2° (Epoch: 5 March)

Event Time Altitude Azimuth Distance (km) Brightness Sun altitude
Rises 20:10:30 0° 238° (WSW) 4,935 12.2 -25.0°
Reaches altitude 10° 20:13:44 10° 235° (SW) 3,949 11.6 -25.5°
Maximum altitude 20:23:35 58° 160° (SSE) 1,900 9.2 -26.9°
Enters shadow 20:26:10 47° 114° (ESE) 2,101 9.2 -27.3°
Drops below altitude 10° 20:33:17 10° 85° (E) 3,887 - -28.3°
Sets 20:36:26 0° 81° (E) 4,854 - -28.7°
